Погода в Эз-Заказике

Египет     30°35′11″N   31°30′14″E
темп.,
°C
ветер,
м/с
пор.,
м/с
влажн.,
%
обл.,
%
осадки,
мм/ч
давл.,
гПа
погр.,
м
8 марта, пн
пн823:00+11ссв23870 0.0 101941
02:00+10ссв23910 0.0 101726
05:00+9ссв22910 0.0 101722
08:00+14св22720 0.0 1018204
11:00+21всв33370 0.0 10181071
14:00+25ссв35220 0.0 10161990
17:00+23всв66290 0.0 10161119
20:00+15всв49610 0.0 1016183
9 марта, вт
вт923:00+14всв34652 0.0 101786
02:00+13всв45687 0.0 101588
05:00+13в346057 0.0 101450
08:00+18в473570 0.0 1015251
11:00+26в44140 0.0 1014786
14:00+30вюв131040 0.0 10121447
17:00+29ююз221231 0.0 101162
20:00+21в452136 0.0 101295
10 марта, ср
ср1023:00+20юв34200 0.0 101147
02:00+21ююз341717 0.0 101038
05:00+20ююз461732 0.0 1009112
08:00+24зюз6111316 0.0 1011395
11:00+32юз81070 0.0 10111145
14:00+36зюз91450 0.0 10093433
17:00+32зсз791131 0.0 1009908
20:00+19сз4103966 0.0 1012254
11 марта, чт
чт1123:00+14з237555 0.0 101472
02:00+13зюз339450 0.0 101366
05:00+13з239766 0.0 101464
08:00+16зсз348159 0.0 1016298
11:00+23сз444073 0.0 10161104
14:00+28сз682387 0.0 10141704
17:00+22ссз7940100 0.0 10161082
20:00+15ссз3872100 0.0 1018256
12 марта, пт
пт1223:00+13сз3791100 0.0 1019167
02:00+12сз359585 0.0 1018134
05:00+11сз239114 0.0 101844
08:00+15ссз35617 0.0 1019328
11:00+21ссз453052 0.0 10191342
14:00+25ссз551774 0.0 10171771
17:00+22ссв673295 0.0 10181195
20:00+13с356598 0.0 1019124